User: anonymous   Login
Location: Zagreb
(45.8150°N, 15.9819°E)
Time: 09:41:35
(UTC+01:00)
Language:

STARLINK-1769 - Orbit

View from above orbital plane
View from above orbital plane
View from above satellite
View from above satellite

Ground track
Ground track

The orbit data is extracted from the following two-line orbital elements,

1 46382C 20062BL  20333.15587490 -.00023627  00000-0 -25739-3 0  3336
2 46382  52.9983   9.1765 0002370  14.7020  19.4028 15.62784423    12
Epoch (UTC): 28 November 2020 03:44:27
Eccentricity: 0.0002370
inclination: 52.9983°
perigee height: 378 km
apogee height: 381 km
right ascension of ascending node: 9.1765°
argument of perigee: 14.7020°
revolutions per day: 15.62784423
mean anomaly at epoch: 19.4028°
orbit number at epoch: 1

The dashed part of the orbit path shows where the satellite is in the earth's shadow,  

DLR